Weather Service Report


575 
ASCA44 KEWX 231820
RWRMX 

LATIN AMERICA AND CARIBBEAN REGIONAL WEATHER ROUNDUP
NATIONAL WEATHER SERVICE AUSTIN/SAN ANTONIO TX
1200 PM CST THU FEB 23 2017

NOTE: "FAIR" INDICATED FEW OR NO CLOUDS BELOW 12,000 FEET WITH NO
SIGNIFICANT WEATHER AND/OR OBSTRUCTIONS TO VISIBILITY.

BAJA CALIFORNIA
  
CITY           SKY/WX    TMP DP  RH WIND       PRES   REMARKS
LORETO         SUNNY     72  59  64 NE17      29.93R                  
LA PAZ         SUNNY     73  55  53 S13       29.93S                  
MEXICALI       SUNNY     61  28  29 NW13      30.02S                  
S.J. DEL CABO  SUNNY     79  54  41 SE14      29.93S                  
TIJUANA        PTSUNNY   55  37  50 NW13      30.11S                  

NORTHWESTERN MEXICO
  
CITY           SKY/WX    TMP DP  RH WIND       PRES   REMARKS
CULIACAN       SUNNY     73  61  64 CALM      29.91F                  
DURANGO        SUNNY     70  14  11 S10       30.13F                  
GUAYMAS        SUNNY     75  54  46 N12       29.88S                  
HERMOSILLO     SUNNY     75  43  31 W8        29.94R                  
CD. JUAREZ     MOSUNNY   70  37  30 W29G40    29.72F                  
LOS MOCHIS     MOSUNNY   70  57  64 SE8       29.94R                  
OBREGON        PTSUNNY   66  59  77 S8        29.92R                  

NORTHEASTERN MEXICO
  
CITY           SKY/WX    TMP DP  RH WIND       PRES   REMARKS
CHIHUAHUA      SUNNY     75  25  15 S14       29.91F                  
MATAMOROS      SUNNY     88  48  25 S20       29.73F                  
MONCLOVA       SUNNY     88  25  10 W23       29.76F                  
MONTERREY      SUNNY     91  18   6 NW5       29.72F                  
NUEVO LAREDO   SUNNY     88  39  18 S8        29.68F                  
PIEDRAS NEGRAS   N/A    N/A N/A N/A MISG        N/A                   
REYNOSA        SUNNY     88  34  14 SE14G30   29.69F                  
SALTILLO         N/A    N/A N/A N/A MISG        N/A                   
TORREON        SUNNY     75  21  13 E5        29.96F                  
CD. VICTORIA   SUNNY     91  30  11 SE15G26   29.73F                  

WESTERN MEXICO
  
CITY           SKY/WX    TMP DP  RH WIND       PRES   REMARKS
AGUASCALIENTES SUNNY     70  30  23 S9        30.18F                  
COLIMA         SUNNY     81  50  34 CALM      30.00F                  
DEL BAJIO      MOSUNNY   70  39  32 W10       30.23F                  
GUADALAJARA    SUNNY     73  36  25 CALM      30.13F                  
MANZANILLO     SUNNY     81  70  69 S7        29.89F                  
MAZATLAN       MOSUNNY   75  64  69 S5        29.93F                  
P. VALLARTA    SUNNY     77  68  73 SW12      29.92R                  
URUAPAN        SUNNY     72  48  43 S9        30.15F                  
ZACATECAS      SUNNY     70  23  17 SW20      30.19F                  

CENTRAL MEXICO
  
CITY           SKY/WX    TMP DP  RH WIND       PRES   REMARKS
CUERNAVACA     MOSUNNY   82  43  24 S5        30.05                   
MEXICO CITY    SUNNY     73  36  25 CALM      30.21F                  
MORELIA        SUNNY     72  30  21 E9        30.16F                  
POZA RICA      SUNNY     86  54  32 CALM      29.85F                  
PUEBLA         SUNNY     70  39  32 S12       30.23F                  
QUERETARO      SUNNY     72  34  25 W14       30.20F                  
S. LUIS POTOSI SUNNY     73  19  13 CALM      30.12F                  
TAMPICO        SUNNY     82  50  32 W7        29.78F                  
TOLUCA         MOSUNNY   63  34  34 S6        30.31F                  

SOUTHERN MEXICO
  
CITY           SKY/WX    TMP DP  RH WIND       PRES   REMARKS
ACAPULCO       SUNNY     82  72  69 SW6       29.88F                  
B. DE HUATULCO MOSUNNY   82  68  61 E9        29.91F                  
OAXACA         MOSUNNY   75  39  27 NW2       30.11F                  
P. ESCONDIDO   SUNNY     81  73  78 W16       29.95F                  
VERACRUZ       SUNNY     90  54  29 S13       29.80F                  
ZIHUATANEJO    SUNNY     84  70  61 SW9       29.92F                  

YUCATAN PENINSULA
  
CITY           SKY/WX    TMP DP  RH WIND       PRES   REMARKS
CAMPECHE       SUNNY     79  64  61 NW14      29.83F                  
CANCUN         MOSUNNY   81  66  61 W9        29.80F                  
CHETUMAL       SUNNY     86  48  26 NW9       29.83                   
CD. DEL CARMEN SUNNY    N/A N/A N/A S9        29.86F                  
COZUMEL        MOSUNNY   81  59  47 NW12      29.81F                  
MERIDA         PTSUNNY   84  61  45 W9        29.82F                  
MINATITLAN     SUNNY     82  61  47 S9        29.81F                  
TAPACHULA      MOSUNNY   90  70  51 SW10      29.84F HX  95           
TUX. GUTIERREZ SUNNY     82  46  28 E2        29.90F                  
VILLAHERMOSA   SUNNY     82  54  36 NE6       29.85F                  

CENTRAL AMERICA
  
CITY           SKY/WX    TMP DP  RH WIND       PRES   REMARKS
BELIZE CITY      N/A     84  54  34 NW7       29.83F                  
MANAGUA        PTCLDY    90  70  51 N7        29.80F HX  95           

CARIBBEAN
  
CITY           SKY/WX    TMP DP  RH WIND       PRES   REMARKS
ARUBA          MOSUNNY   88  70  55 E13       29.83F HX  92           
CURACAO        MOSUNNY   86  70  58 E14       29.86F HX  90           
KINGSTON       PTSUNNY   75  75 100 SE5       29.80F                  
NASSAU         PTSUNNY   75  61  60 SW6       29.70                   
SAN JUAN       LGT RAIN  79  73  83 S3        29.89F                  
SANTO DOMINGO  MOSUNNY   82  73  74 S9        29.86S                  
ST. CROIX      CLOUDY    81  64  57 VRB3      29.90F                  
ST. KITTS      MOSUNNY   82  68  61 S6        29.89F                  
ST. MAARTEN    MOSUNNY   81  72  74 SE8       29.89F                  
ST. THOMAS     LGT RAIN  73  73 100 E6        29.90  FOG              

$$

  

Return to Home page


Western Regional Climate Center, wrcc@dri.edu